Regional Weather Roundup
Issued by NWS

Home | Current Version | Previous Version | Text Only | Print | Product List | Glossary Off
Versions: 1 2 3 4 5 6 7 8 9 10 11 12 13 14 15 16 17 18 19 20 21 22 23 24 25 26 27 28 29 30 31 32 33 34 35 36 37 38 39 40 41 42 43 44 45 46 47 48 49 50

000
ASUS43 KDMX 251403
RWRIA

WEATHER ROUNDUP FOR IOWA
NATIONAL WEATHER SERVICE DES MOINES IA
900 AM CDT THU AUG 25 2016

NOTE: "FAIR" INDICATES FEW OR NO CLOUDS BELOW 12,000 FEET WITH NO
SIGNIFICANT WEATHER AND/OR OBSTRUCTIONS TO VISIBILITY.

* - THESE STATIONS ARE NOT NWS STATIONS...THUS NOT UNDER NWS
QUALITY CONTROL.  THEY ALSO DO NOT REPORT WEATHER SUCH
AS PRECIPITATION OR FOG.

IAZ001>003-012>014-020>022-031>034-043>046-251500-
   NORTHWEST IOWA

CITY           SKY/WX    TMP DP  RH WIND       PRES   REMARKS
CARROLL *      MOSUNNY   64  61  88 CALM      30.11R
CHEROKEE *     CLOUDY    63  60  90 CALM      30.11R
DENISON *      CLOUDY    59  59 100 CALM      30.10S
LE MARS *      CLOUDY    61  59  94 CALM      30.13R
ORANGE CITY *  CLOUDY    61  57  88 NW3       30.12R
SHELDON *      PTSUNNY   61  59  94 VRB3      30.10R
SIOUX CITY     CLOUDY    61  58  90 W6        30.12R
SPENCER        MOSUNNY   63  58  83 NW7       30.10R
STORM LAKE *   MOSUNNY   66  57  72 CALM      30.12R
$$

IAZ055>058-069>071-079>083-090>094-251500-
   SOUTHWEST IOWA

CITY           SKY/WX    TMP DP  RH WIND       PRES   REMARKS
ATLANTIC *     CLOUDY    61  59  94 CALM      30.12R
AUDUBON *      CLOUDY    64  59  82 CALM      30.13R
CLARINDA *       N/A     66  64  94 MISG      30.13R
COUNCIL BLFS * CLOUDY    61  59  94 CALM      30.13R
CRESTON *      CLOUDY    66  61  82 N6        30.12R
HARLAN  *      CLOUDY    61  59  94 CALM      30.16R
LAMONI         CLOUDY    66  65  96 NE5       30.09R
RED OAK *        N/A    N/A N/A N/A N6        30.13R
SHENANDOAH *   LGT RAIN  63 N/A N/A CALM      30.14R
$$

IAZ047>049-059>061-072>074-084-251500-
   CENTRAL IOWA

CITY           SKY/WX    TMP DP  RH WIND       PRES   REMARKS
AMES           SUNNY     69  62  78 N5        30.09R
ANKENY *         N/A    N/A N/A N/A MISG        N/A
BOONE *        SUNNY     66  61  82 N6        30.10R
CHARITON *       N/A     68  64  88 MISG      30.08R
DES MOINES     PTSUNNY   71  62  73 N5        30.08R
GRINNELL*      CLOUDY    69  61  75 N3        30.08S
KNOXVILLE *    PTSUNNY   70  61  73 N6        30.07R
MARSHALLTOWN   SUNNY     70  63  78 N5        30.08R
NEWTON *       CLOUDY    68  63  83 N5        30.07R
PERRY *          N/A     65  63  96 NW3       30.10R
$$

IAZ004>006-015-016-023>025-035-036-251500-
   NORTH CENTRAL IOWA

CITY           SKY/WX    TMP DP  RH WIND       PRES   REMARKS
ALGONA *       SUNNY     68  59  73 NW5       30.09R
ESTHERVILLE    SUNNY     65  60  84 NW10      30.08R
FORT DODGE *   SUNNY     66  61  82 CALM      30.11R
MASON CITY     SUNNY     67  60  78 NW3       30.09S
FOREST CITY *    N/A    N/A N/A N/A MISG        N/A
WEBSTER CITY * SUNNY     66  61  82 CALM      30.08R
IOWA FALLS *     N/A     67  61  79 NW3       30.10R
$$

IAZ007>011-017>019-026>030-037>042-050>054-066-251500-
   NORTHEAST IOWA

CITY           SKY/WX    TMP DP  RH WIND       PRES   REMARKS
CEDAR RAPIDS   SUNNY     70  64  81 N8        30.05S
CHARLES CITY * SUNNY     66  63  88 NW3       30.08S
CLINTON *      CLOUDY    71  65  81 N9        30.04S
DECORAH *      MOSUNNY   66  63  88 VRB5      30.06S
DUBUQUE        CLOUDY    69  61  75 N8        30.06R
MONTICELLO *   MOSUNNY   70  63  78 N5        30.05S
OELWEIN *      CLOUDY    66  63  88 NW7       30.08R
WATERLOO       CLOUDY    69  62  78 N8        30.05S
$$

IAZ064-065-067-068-078-251500-
   EAST CENTRAL IOWA

CITY           SKY/WX    TMP DP  RH WIND       PRES   REMARKS
DAVENPORT      CLOUDY    72  65  78 N8        30.04S
IOWA CITY      CLOUDY    73  62  68 VRB6      30.06R
MT. PLEASANT * CLOUDY    74  68  80 N10       30.03S
MUSCATINE *    CLOUDY    72  64  78 N7        30.04R
QUAD CITIES    CLOUDY    73  64  73 NE7       30.03S
$$

IAZ062-063-075>077-085>089-095>099-251500-
   SOUTHEAST IOWA

CITY           SKY/WX    TMP DP  RH WIND       PRES   REMARKS
BURLINGTON     CLOUDY    72  70  93 N12       30.01F
FAIRFIELD *    CLOUDY    70  63  78 N12       30.05R
FORT MADISON * CLOUDY    72  70  94 N3        30.04R
KEOKUK *       CLOUDY    72  70  94 N3        30.04R FOG
OSKALOOSA *      N/A     69  65  89 N8        30.07R
CENTERVILLE *    N/A     70  66  88 N3        30.09R
OTTUMWA        MOSUNNY   69  64  84 N7        30.06R
WASHINGTON *   CLOUDY    70  66  88 N10       30.06R
$$

ABBREVIATIONS USED IN REMARKS
   TC - TEMPERATURES IN CELSIUS
  WCI - WIND CHILL INDEX
   HX - HEAT INDEX
  VSB - VISIBILITY
$$





USA.gov is the U.S. government's official web portal to all federal, state and local government web resources and services.